Regional Weather Roundup
Issued by NWS Binghamton, NY

Home | Current Version | Previous Version | Text Only | Print | Product List | Glossary On
Versions: 1 2 3 4 5 6 7 8 9 10 11 12 13 14 15 16 17 18 19 20 21 22 23 24 25 26 27 28 29 30 31 32 33 34 35 36 37 38 39 40 41 42 43 44 45 46 47 48 49 50
000
ASUS41 KBGM 271610
RWRBGM

REGIONAL WEATHER ROUNDUP
NATIONAL WEATHER SERVICE BINGHAMTON NY
1200 PM EDT THU APR 27 2017

Note: "fair" indicates few or no clouds below 12,000 feet with no
significant weather and/or obstructions to visibility.

* = Station(s) that does not report precipitation, such as rain,
snow, etc, also no thunder or fog.

NYZ009-015>018-022>025-036-037-044>046-055>057-062-271700
...Central New York...

CITY           SKY/WX    TMP DP  RH WIND       PRES   REMARKS
Binghamton     CLOUDY    63  56  78 S10       29.85S
Cortland       FAIR      70  59  68 S6        29.82S
Dansville      MOSUNNY   77  60  55 SE12      29.72F
Elmira         CLOUDY    73  59  61 SE12      29.79S
Seneca Falls   SUNNY     73  61  64 S18       29.75F
Ithaca         MOSUNNY   70  59  68 SE17G25   29.81S
Hamilton       SUNNY     70  55  60 S9        29.83F
Monticello     CLOUDY    63  57  82 S3        29.92R
Norwich        PTSUNNY   68  55  64 S10       29.85F
Penn Yan       CLOUDY    72  57  59 SW13      29.76F
Rome           SUNNY     72  59  63 E13       29.81F
Sidney         CLOUDY    68  61  77 SW7       29.86S
Syracuse       PTSUNNY   74  60  61 SE13      29.76S
$$

PAZ038>040-043-044-047-048-072-271700
...Northeast Pennsylvania...

CITY           SKY/WX    TMP DP  RH WIND       PRES   REMARKS
Hazleton       CLOUDY    64  57  77 SE7       29.92S
Scranton       CLOUDY    70  59  68 S10       29.86S
$$
&&
KEY
WCI = Wind Chill Index
VSB = Visibility
HX  = Heat Index
$$



USA.gov is the U.S. government's official web portal to all federal, state and local government web resources and services.